#ZEITBEREICH: 03.05.2023 bis 03.05.2024
Datum;Zeit;DATT NO AM1H [�g/m�];DATT NO2 AM1H [�g/m�];DATT PM10F GM24H [�g/m�];DATT SO2 AM1H [�g/m�]
03.05.2023;01:00;<7;<10;17;<10
03.05.2023;02:00;<7;11;16;<10
03.05.2023;03:00;<7;11;15;<10
03.05.2023;04:00;;;14;
03.05.2023;05:00;<7;19;14;<10
03.05.2023;06:00;<7;21;15;<10
03.05.2023;07:00;<7;23;15;<10
03.05.2023;08:00;<7;16;15;<10
03.05.2023;09:00;;;16;
03.05.2023;10:00;;;16;
03.05.2023;11:00;<7;<10;16;<10
03.05.2023;12:00;<7;<10;17;<10
03.05.2023;13:00;<7;<10;17;<10
03.05.2023;14:00;<7;<10;17;<10
03.05.2023;15:00;<7;<10;17;<10
03.05.2023;16:00;<7;<10;17;<10
03.05.2023;17:00;<7;<10;16;<10
03.05.2023;18:00;<7;<10;17;<10
03.05.2023;19:00;<7;<10;16;<10
03.05.2023;20:00;<7;10;17;<10
03.05.2023;21:00;<7;11;17;<10
03.05.2023;22:00;<7;<10;17;<10
03.05.2023;23:00;<7;<10;17;<10
03.05.2023;24:00;<7;<10;17;<10
04.05.2023;01:00;<7;10;18;<10
04.05.2023;02:00;<7;11;18;<10
04.05.2023;03:00;<7;11;19;<10
04.05.2023;04:00;<7;14;19;<10
04.05.2023;05:00;<7;20;19;<10
04.05.2023;06:00;<7;24;19;<10
04.05.2023;07:00;7;30;20;<10
04.05.2023;08:00;<7;17;20;<10
04.05.2023;09:00;<7;17;20;<10
04.05.2023;10:00;<7;16;20;<10
04.05.2023;11:00;;;20;<10
04.05.2023;12:00;<7;15;21;<10
04.05.2023;13:00;<7;<10;21;<10
04.05.2023;14:00;<7;<10;21;<10
04.05.2023;15:00;<7;<10;21;<10
04.05.2023;16:00;<7;<10;21;<10
04.05.2023;17:00;<7;<10;21;<10
04.05.2023;18:00;<7;<10;21;<10
04.05.2023;19:00;<7;<10;21;<10
04.05.2023;20:00;<7;<10;21;<10
04.05.2023;21:00;<7;13;21;<10
04.05.2023;22:00;<7;22;21;<10
04.05.2023;23:00;<7;28;22;<10
04.05.2023;24:00;<7;26;22;<10
05.05.2023;01:00;<7;23;22;<10
05.05.2023;02:00;<7;17;22;<10
05.05.2023;03:00;<7;19;22;<10
05.05.2023;04:00;<7;19;22;<10
05.05.2023;05:00;<7;20;23;<10
05.05.2023;06:00;<7;24;23;<10
05.05.2023;07:00;<7;34;23;<10
05.05.2023;08:00;<7;29;24;<10
05.05.2023;09:00;<7;<10;23;<10
05.05.2023;10:00;<7;<10;23;<10
05.05.2023;11:00;<7;<10;23;<10
05.05.2023;12:00;;;23;<10
05.05.2023;13:00;<7;<10;22;<10
05.05.2023;14:00;<7;<10;22;<10
05.05.2023;15:00;<7;20;22;<10
05.05.2023;16:00;<7;14;22;<10
05.05.2023;17:00;<7;<10;22;<10
05.05.2023;18:00;<7;<10;21;<10
05.05.2023;19:00;<7;<10;21;<10
05.05.2023;20:00;<7;10;21;<10
05.05.2023;21:00;<7;13;20;<10
05.05.2023;22:00;<7;13;19;<10
05.05.2023;23:00;<7;11;19;<10
05.05.2023;24:00;<7;10;18;<10
06.05.2023;01:00;<7;11;18;<10
06.05.2023;02:00;<7;16;17;<10
06.05.2023;03:00;<7;16;17;<10
06.05.2023;04:00;<7;19;17;<10
06.05.2023;05:00;<7;20;16;<10
06.05.2023;06:00;9;20;15;<10
06.05.2023;07:00;17;19;14;<10
06.05.2023;08:00;12;16;14;<10
06.05.2023;09:00;9;17;14;<10
06.05.2023;10:00;<7;19;14;<10
06.05.2023;11:00;<7;12;14;<10
06.05.2023;12:00;<7;<10;14;<10
06.05.2023;13:00;;;14;<10
06.05.2023;14:00;<7;<10;14;<10
06.05.2023;15:00;<7;<10;14;<10
06.05.2023;16:00;<7;<10;14;<10
06.05.2023;17:00;<7;<10;14;<10
06.05.2023;18:00;<7;<10;14;<10
06.05.2023;19:00;<7;16;14;<10
06.05.2023;20:00;<7;12;15;<10
06.05.2023;21:00;<7;11;15;<10
06.05.2023;22:00;<7;<10;15;<10
06.05.2023;23:00;<7;11;15;<10
06.05.2023;24:00;<7;15;15;<10
07.05.2023;01:00;<7;<10;15;<10
07.05.2023;02:00;<7;<10;16;<10
07.05.2023;03:00;<7;<10;16;<10
07.05.2023;04:00;<7;<10;16;<10
07.05.2023;05:00;<7;<10;16;<10
07.05.2023;06:00;<7;<10;17;<10
07.05.2023;07:00;<7;<10;17;<10
07.05.2023;08:00;<7;<10;16;<10
07.05.2023;09:00;<7;<10;16;<10
07.05.2023;10:00;<7;<10;16;<10
07.05.2023;11:00;<7;<10;17;<10
07.05.2023;12:00;<7;<10;17;<10
07.05.2023;13:00;<7;<10;17;<10
07.05.2023;14:00;;;17;<10
07.05.2023;15:00;<7;<10;17;<10
07.05.2023;16:00;<7;<10;17;<10
07.05.2023;17:00;<7;<10;17;<10
07.05.2023;18:00;<7;<10;17;<10
07.05.2023;19:00;<7;<10;17;<10
07.05.2023;20:00;<7;<10;17;<10
07.05.2023;21:00;<7;<10;17;<10
07.05.2023;22:00;<7;<10;17;<10
07.05.2023;23:00;<7;<10;17;<10
07.05.2023;24:00;<7;<10;18;<10
08.05.2023;01:00;<7;<10;18;<10
08.05.2023;02:00;<7;<10;18;<10
08.05.2023;03:00;<7;<10;18;<10
08.05.2023;04:00;<7;<10;18;<10
08.05.2023;05:00;<7;13;18;<10
08.05.2023;06:00;<7;17;18;<10
08.05.2023;07:00;<7;15;18;<10
08.05.2023;08:00;<7;17;19;<10
08.05.2023;09:00;10;17;19;<10
08.05.2023;10:00;10;21;19;<10
08.05.2023;11:00;8;27;19;<10
08.05.2023;12:00;<7;20;19;<10
08.05.2023;13:00;<7;11;18;<10
08.05.2023;14:00;<7;11;18;<10
08.05.2023;15:00;;;18;<10
08.05.2023;16:00;<7;11;18;<10
08.05.2023;17:00;<7;<10;18;<10
08.05.2023;18:00;<7;<10;18;<10
08.05.2023;19:00;<7;<10;18;<10
08.05.2023;20:00;<7;19;18;<10
08.05.2023;21:00;<7;20;17;<10
08.05.2023;22:00;<7;16;17;<10
08.05.2023;23:00;<7;15;17;<10
08.05.2023;24:00;<7;16;17;<10
09.05.2023;01:00;<7;10;16;<10
09.05.2023;02:00;<7;13;16;<10
09.05.2023;03:00;<7;<10;16;<10
09.05.2023;04:00;<7;16;16;<10
09.05.2023;05:00;<7;21;16;<10
09.05.2023;06:00;<7;21;16;<10
09.05.2023;07:00;<7;32;16;<10
09.05.2023;08:00;9;29;16;<10
09.05.2023;09:00;<7;17;16;<10
09.05.2023;10:00;<7;<10;16;<10
09.05.2023;11:00;<7;<10;16;<10
09.05.2023;12:00;<7;<10;16;<10
09.05.2023;13:00;<7;<10;16;<10
09.05.2023;14:00;<7;<10;16;<10
09.05.2023;15:00;<7;<10;16;<10
09.05.2023;16:00;;;16;<10
09.05.2023;17:00;<7;<10;16;<10
09.05.2023;18:00;<7;<10;16;<10
09.05.2023;19:00;<7;13;16;<10
09.05.2023;20:00;<7;<10;16;<10
09.05.2023;21:00;<7;<10;16;<10
09.05.2023;22:00;<7;<10;16;<10
09.05.2023;23:00;<7;<10;16;<10
09.05.2023;24:00;<7;11;16;<10
10.05.2023;01:00;<7;11;15;<10
10.05.2023;02:00;<7;<10;15;<10
10.05.2023;03:00;<7;<10;15;<10
10.05.2023;04:00;<7;<10;15;<10
10.05.2023;05:00;<7;<10;14;<10
10.05.2023;06:00;<7;<10;14;<10
10.05.2023;07:00;<7;16;14;<10
10.05.2023;08:00;<7;11;14;<10
10.05.2023;09:00;<7;11;14;<10
10.05.2023;10:00;<7;<10;15;<10
10.05.2023;11:00;<7;12;15;<10
10.05.2023;12:00;<7;17;16;<10
10.05.2023;13:00;<7;16;16;<10
10.05.2023;14:00;<7;10;17;<10
10.05.2023;15:00;<7;12;17;<10
10.05.2023;16:00;<7;12;17;<10
10.05.2023;17:00;;;17;<10
10.05.2023;18:00;<7;<10;16;<10
10.05.2023;19:00;<7;<10;16;<10
10.05.2023;20:00;<7;<10;16;<10
10.05.2023;21:00;<7;10;17;<10
10.05.2023;22:00;<7;17;17;<10
10.05.2023;23:00;<7;18;17;<10
10.05.2023;24:00;<7;17;18;<10
11.05.2023;01:00;<7;17;18;<10
11.05.2023;02:00;<7;21;19;<10
11.05.2023;03:00;<7;22;20;<10
11.05.2023;04:00;<7;18;21;<10
11.05.2023;05:00;<7;20;22;<10
11.05.2023;06:00;<7;17;23;<10
11.05.2023;07:00;<7;<10;23;<10
11.05.2023;08:00;<7;10;23;<10
11.05.2023;09:00;<7;13;22;<10
11.05.2023;10:00;<7;<10;22;<10
11.05.2023;11:00;<7;<10;21;<10
11.05.2023;12:00;<7;<10;20;<10
11.05.2023;13:00;<7;<10;20;<10
11.05.2023;14:00;<7;<10;19;<10
11.05.2023;15:00;<7;<10;19;<10
11.05.2023;16:00;<7;<10;18;<10
11.05.2023;17:00;<7;<10;18;<10
11.05.2023;18:00;;;18;<10
11.05.2023;19:00;<7;<10;18;<10
11.05.2023;20:00;<7;<10;18;<10
11.05.2023;21:00;<7;<10;18;<10
11.05.2023;22:00;<7;<10;17;<10
11.05.2023;23:00;<7;<10;17;<10
11.05.2023;24:00;<7;<10;17;<10
12.05.2023;01:00;<7;<10;16;<10
12.05.2023;02:00;<7;<10;16;<10
12.05.2023;03:00;<7;<10;16;<10
12.05.2023;04:00;<7;<10;15;<10
12.05.2023;05:00;<7;<10;14;<10
12.05.2023;06:00;<7;<10;13;<10
12.05.2023;07:00;<7;11;12;<10
12.05.2023;08:00;<7;10;12;<10
12.05.2023;09:00;<7;10;12;<10
12.05.2023;10:00;<7;<10;12;<10
12.05.2023;11:00;<7;<10;12;<10
12.05.2023;12:00;<7;<10;12;<10
12.05.2023;13:00;<7;<10;12;<10
12.05.2023;14:00;<7;<10;12;<10
12.05.2023;15:00;<7;<10;13;<10
12.05.2023;16:00;<7;<10;13;<10
12.05.2023;17:00;<7;<10;13;<10
12.05.2023;18:00;<7;11;14;<10
12.05.2023;19:00;;;14;<10
12.05.2023;20:00;<7;11;15;<10
12.05.2023;21:00;<7;14;15;<10
12.05.2023;22:00;<7;14;15;<10
12.05.2023;23:00;<7;11;16;<10
12.05.2023;24:00;<7;<10;16;<10
13.05.2023;01:00;<7;13;17;<10
13.05.2023;02:00;<7;10;17;<10
13.05.2023;03:00;<7;11;18;<10
13.05.2023;04:00;<7;12;18;<10
13.05.2023;05:00;<7;14;18;<10
13.05.2023;06:00;<7;13;19;<10
13.05.2023;07:00;<7;12;20;<10
13.05.2023;08:00;<7;13;20;<10
13.05.2023;09:00;<7;11;21;<10
13.05.2023;10:00;<7;<10;21;<10
13.05.2023;11:00;<7;<10;22;<10
13.05.2023;12:00;<7;<10;22;<10
13.05.2023;13:00;<7;<10;23;<10
13.05.2023;14:00;<7;<10;23;<10
13.05.2023;15:00;<7;<10;24;<10
13.05.2023;16:00;<7;<10;24;<10
13.05.2023;17:00;<7;<10;24;<10
13.05.2023;18:00;<7;<10;24;<10
13.05.2023;19:00;<7;<10;24;<10
13.05.2023;20:00;;;24;<10
13.05.2023;21:00;<7;15;24;<10
13.05.2023;22:00;<7;14;24;<10
13.05.2023;23:00;<7;12;24;<10
13.05.2023;24:00;<7;<10;24;<10
14.05.2023;01:00;<7;12;24;<10
14.05.2023;02:00;<7;11;24;<10
14.05.2023;03:00;<7;11;24;<10
14.05.2023;04:00;<7;<10;24;<10
14.05.2023;05:00;<7;<10;24;<10
14.05.2023;06:00;<7;11;24;<10
14.05.2023;07:00;8;19;24;<10
14.05.2023;08:00;<7;14;24;<10
14.05.2023;09:00;<7;12;23;<10
14.05.2023;10:00;<7;<10;23;<10
14.05.2023;11:00;<7;<10;22;<10
14.05.2023;12:00;<7;<10;22;<10
14.05.2023;13:00;<7;<10;21;<10
14.05.2023;14:00;<7;<10;20;<10
14.05.2023;15:00;<7;<10;20;<10
14.05.2023;16:00;<7;<10;20;<10
14.05.2023;17:00;<7;<10;19;<10
14.05.2023;18:00;<7;<10;19;<10
14.05.2023;19:00;<7;<10;19;<10
14.05.2023;20:00;<7;<10;18;<10
14.05.2023;21:00;;;18;<10
14.05.2023;22:00;<7;<10;18;<10
14.05.2023;23:00;<7;<10;17;<10
14.05.2023;24:00;<7;<10;17;<10
15.05.2023;01:00;<7;<10;16;<10
15.05.2023;02:00;<7;<10;16;<10
15.05.2023;03:00;<7;<10;16;<10
15.05.2023;04:00;<7;<10;16;<10
15.05.2023;05:00;<7;12;16;<10
15.05.2023;06:00;<7;10;16;<10
15.05.2023;07:00;<7;13;16;<10
15.05.2023;08:00;<7;11;17;<10
15.05.2023;09:00;<7;11;18;<10
15.05.2023;10:00;<7;11;18;<10
15.05.2023;11:00;<7;<10;19;<10
15.05.2023;12:00;<7;<10;20;<10
15.05.2023;13:00;<7;<10;21;<10
15.05.2023;14:00;<7;<10;21;<10
15.05.2023;15:00;<7;<10;21;<10
15.05.2023;16:00;<7;<10;21;<10
15.05.2023;17:00;<7;<10;22;<10
15.05.2023;18:00;<7;<10;22;<10
15.05.2023;19:00;<7;<10;22;<10
15.05.2023;20:00;<7;<10;22;<10
15.05.2023;21:00;<7;<10;22;<10
15.05.2023;22:00;;;22;<10
15.05.2023;23:00;<7;<10;22;<10
15.05.2023;24:00;<7;<10;22;<10
16.05.2023;01:00;<7;<10;22;<10
16.05.2023;02:00;<7;<10;22;<10
16.05.2023;03:00;<7;<10;21;<10
16.05.2023;04:00;<7;<10;21;<10
16.05.2023;05:00;<7;<10;20;<10
16.05.2023;06:00;<7;<10;19;<10
16.05.2023;07:00;<7;<10;19;<10
16.05.2023;08:00;<7;<10;18;<10
16.05.2023;09:00;<7;<10;17;<10
16.05.2023;10:00;<7;<10;16;<10
16.05.2023;11:00;<7;<10;15;<10
16.05.2023;12:00;<7;<10;15;<10
16.05.2023;13:00;<7;<10;15;<10
16.05.2023;14:00;<7;<10;14;<10
16.05.2023;15:00;<7;<10;14;<10
16.05.2023;16:00;<7;<10;14;<10
16.05.2023;17:00;<7;<10;14;<10
16.05.2023;18:00;<7;<10;14;<10
16.05.2023;19:00;<7;<10;14;<10
16.05.2023;20:00;<7;<10;14;<10
16.05.2023;21:00;<7;<10;14;<10
16.05.2023;22:00;<7;<10;13;<10
16.05.2023;23:00;;;13;<10
16.05.2023;24:00;<7;<10;13;<10
17.05.2023;01:00;<7;<10;13;<10
17.05.2023;02:00;<7;<10;13;<10
17.05.2023;03:00;<7;<10;13;<10
17.05.2023;04:00;<7;<10;13;<10
17.05.2023;05:00;<7;<10;13;<10
17.05.2023;06:00;<7;12;14;<10
17.05.2023;07:00;<7;<10;14;<10
17.05.2023;08:00;<7;<10;13;<10
17.05.2023;09:00;<7;<10;13;<10
17.05.2023;10:00;<7;<10;14;<10
17.05.2023;11:00;<7;<10;14;<10
17.05.2023;12:00;<7;<10;14;<10
17.05.2023;13:00;<7;<10;14;<10
17.05.2023;14:00;<7;<10;14;<10
17.05.2023;15:00;<7;<10;14;<10
17.05.2023;16:00;<7;<10;15;<10
17.05.2023;17:00;<7;<10;15;<10
17.05.2023;18:00;<7;<10;16;<10
17.05.2023;19:00;<7;<10;16;<10
17.05.2023;20:00;<7;<10;16;<10
17.05.2023;21:00;<7;<10;17;<10
17.05.2023;22:00;<7;<10;17;<10
17.05.2023;23:00;<7;<10;17;<10
17.05.2023;24:00;;;17;<10
18.05.2023;01:00;<7;<10;18;
18.05.2023;02:00;<7;<10;18;<10
18.05.2023;03:00;<7;<10;18;<10
18.05.2023;04:00;<7;<10;18;<10
18.05.2023;05:00;<7;<10;19;<10
18.05.2023;06:00;<7;<10;19;<10
18.05.2023;07:00;<7;<10;19;<10
18.05.2023;08:00;<7;<10;19;<10
18.05.2023;09:00;<7;<10;19;<10
18.05.2023;10:00;<7;<10;19;<10
18.05.2023;11:00;<7;<10;18;<10
18.05.2023;12:00;<7;<10;19;<10
18.05.2023;13:00;<7;<10;18;<10
18.05.2023;14:00;<7;<10;18;<10
18.05.2023;15:00;<7;<10;18;<10
18.05.2023;16:00;<7;<10;18;<10
18.05.2023;17:00;<7;<10;18;<10
18.05.2023;18:00;<7;<10;18;<10
18.05.2023;19:00;<7;<10;18;<10
18.05.2023;20:00;<7;<10;18;<10
18.05.2023;21:00;<7;<10;18;<10
18.05.2023;22:00;<7;<10;18;<10
18.05.2023;23:00;<7;<10;18;<10
18.05.2023;24:00;<7;<10;18;<10
19.05.2023;01:00;;;18;
19.05.2023;02:00;<7;<10;18;<10
19.05.2023;03:00;<7;<10;18;<10
19.05.2023;04:00;<7;<10;18;<10
19.05.2023;05:00;<7;11;18;<10
19.05.2023;06:00;<7;16;18;<10
19.05.2023;07:00;<7;14;18;<10
19.05.2023;08:00;<7;<10;18;<10
19.05.2023;09:00;<7;<10;18;<10
19.05.2023;10:00;<7;<10;18;<10
19.05.2023;11:00;<7;<10;18;<10
19.05.2023;12:00;<7;<10;18;<10
19.05.2023;13:00;<7;<10;18;<10
19.05.2023;14:00;<7;<10;18;<10
19.05.2023;15:00;<7;<10;18;<10
19.05.2023;16:00;<7;<10;18;<10
19.05.2023;17:00;<7;<10;18;<10
19.05.2023;18:00;<7;<10;17;<10
19.05.2023;19:00;<7;<10;17;<10
19.05.2023;20:00;<7;<10;17;<10
19.05.2023;21:00;<7;<10;17;<10
19.05.2023;22:00;<7;<10;16;<10
19.05.2023;23:00;<7;<10;16;<10
19.05.2023;24:00;<7;<10;16;<10
20.05.2023;01:00;<7;<10;16;<10
20.05.2023;02:00;;;16;<10
20.05.2023;03:00;<7;<10;16;<10
20.05.2023;04:00;<7;<10;16;<10
20.05.2023;05:00;<7;<10;17;<10
20.05.2023;06:00;<7;<10;17;<10
20.05.2023;07:00;<7;<10;16;<10
20.05.2023;08:00;<7;<10;16;<10
20.05.2023;09:00;<7;<10;16;<10
20.05.2023;10:00;<7;<10;16;<10
20.05.2023;11:00;<7;<10;16;<10
20.05.2023;12:00;<7;<10;17;<10
20.05.2023;13:00;<7;<10;17;<10
20.05.2023;14:00;<7;<10;17;<10
20.05.2023;15:00;<7;<10;17;<10
20.05.2023;16:00;<7;<10;17;<10
20.05.2023;17:00;<7;<10;17;<10
20.05.2023;18:00;<7;<10;17;<10
20.05.2023;19:00;<7;<10;17;<10
20.05.2023;20:00;<7;<10;17;<10
20.05.2023;21:00;<7;<10;17;<10
20.05.2023;22:00;<7;<10;17;<10
20.05.2023;23:00;<7;<10;17;<10
20.05.2023;24:00;<7;<10;17;<10
21.05.2023;01:00;<7;<10;17;<10
21.05.2023;02:00;<7;<10;17;<10
21.05.2023;03:00;;;17;<10
21.05.2023;04:00;<7;<10;17;<10
21.05.2023;05:00;<7;<10;17;<10
21.05.2023;06:00;<7;<10;16;<10
21.05.2023;07:00;<7;<10;16;<10
21.05.2023;08:00;<7;<10;16;<10
21.05.2023;09:00;<7;<10;17;<10
21.05.2023;10:00;<7;<10;17;<10
21.05.2023;11:00;<7;<10;17;<10
21.05.2023;12:00;<7;<10;17;<10
21.05.2023;13:00;<7;<10;17;<10
21.05.2023;14:00;<7;<10;17;<10
21.05.2023;15:00;<7;<10;18;<10
21.05.2023;16:00;<7;<10;18;<10
21.05.2023;17:00;<7;<10;19;<10
21.05.2023;18:00;<7;<10;19;<10
21.05.2023;19:00;<7;<10;20;<10
21.05.2023;20:00;<7;<10;20;<10
21.05.2023;21:00;<7;<10;20;<10
21.05.2023;22:00;<7;<10;21;<10
21.05.2023;23:00;<7;<10;21;<10
21.05.2023;24:00;<7;<10;21;<10
22.05.2023;01:00;<7;<10;21;<10
22.05.2023;02:00;<7;<10;21;<10
22.05.2023;03:00;<7;<10;21;<10
22.05.2023;04:00;;;20;<10
22.05.2023;05:00;<7;<10;20;<10
22.05.2023;06:00;<7;12;20;<10
22.05.2023;07:00;<7;13;21;<10
22.05.2023;08:00;<7;12;21;<10
22.05.2023;09:00;<7;11;21;<10
22.05.2023;10:00;<7;15;21;<10
22.05.2023;11:00;<7;13;21;11
22.05.2023;12:00;<7;<10;21;<10
22.05.2023;13:00;<7;<10;21;<10
22.05.2023;14:00;<7;<10;21;<10
22.05.2023;15:00;<7;<10;21;<10
22.05.2023;16:00;<7;<10;21;<10
22.05.2023;17:00;<7;<10;21;<10
22.05.2023;18:00;<7;<10;21;<10
22.05.2023;19:00;<7;<10;21;<10
22.05.2023;20:00;<7;<10;21;<10
22.05.2023;21:00;<7;<10;20;<10
22.05.2023;22:00;<7;<10;20;<10
22.05.2023;23:00;<7;<10;20;<10
22.05.2023;24:00;<7;<10;20;<10
23.05.2023;01:00;<7;<10;19;<10
23.05.2023;02:00;<7;<10;19;<10
23.05.2023;03:00;<7;<10;19;<10
23.05.2023;04:00;<7;<10;19;<10
23.05.2023;05:00;;;19;<10
23.05.2023;06:00;<7;<10;19;<10
23.05.2023;07:00;<7;<10;19;<10
23.05.2023;08:00;<7;<10;19;<10
23.05.2023;09:00;<7;<10;18;<10
23.05.2023;10:00;<7;<10;18;<10
23.05.2023;11:00;<7;<10;18;<10
23.05.2023;12:00;<7;<10;17;<10
23.05.2023;13:00;<7;<10;17;<10
23.05.2023;14:00;<7;<10;17;<10
23.05.2023;15:00;<7;<10;17;<10
23.05.2023;16:00;<7;<10;17;<10
23.05.2023;17:00;<7;<10;17;<10
23.05.2023;18:00;<7;<10;16;<10
23.05.2023;19:00;<7;<10;16;<10
23.05.2023;20:00;<7;<10;16;<10
23.05.2023;21:00;<7;<10;16;<10
23.05.2023;22:00;<7;<10;16;<10
23.05.2023;23:00;<7;<10;16;<10
23.05.2023;24:00;<7;<10;16;<10
24.05.2023;01:00;<7;<10;17;<10
24.05.2023;02:00;<7;<10;17;<10
24.05.2023;03:00;<7;<10;18;<10
24.05.2023;04:00;<7;<10;18;<10
24.05.2023;05:00;<7;<10;18;<10
24.05.2023;06:00;;;18;<10
24.05.2023;07:00;<7;13;18;<10
24.05.2023;08:00;<7;<10;19;<10
24.05.2023;09:00;<7;<10;19;<10
24.05.2023;10:00;<7;<10;19;<10
24.05.2023;11:00;<7;<10;20;<10
24.05.2023;12:00;<7;<10;20;<10
24.05.2023;13:00;<7;<10;20;<10
24.05.2023;14:00;<7;<10;20;<10
24.05.2023;15:00;<7;<10;20;<10
24.05.2023;16:00;<7;<10;20;<10
24.05.2023;17:00;<7;<10;20;<10
24.05.2023;18:00;<7;<10;20;<10
24.05.2023;19:00;<7;<10;21;<10
24.05.2023;20:00;<7;<10;21;<10
24.05.2023;21:00;<7;15;21;<10
24.05.2023;22:00;<7;15;21;<10
24.05.2023;23:00;<7;17;21;<10
24.05.2023;24:00;<7;15;21;<10
25.05.2023;01:00;<7;12;22;<10
25.05.2023;02:00;<7;10;21;<10
25.05.2023;03:00;<7;<10;21;<10
25.05.2023;04:00;<7;<10;21;<10
25.05.2023;05:00;<7;<10;21;<10
25.05.2023;06:00;<7;<10;21;<10
25.05.2023;07:00;;;21;<10
25.05.2023;08:00;<7;<10;21;<10
25.05.2023;09:00;<7;<10;21;<10
25.05.2023;10:00;<7;<10;21;<10
25.05.2023;11:00;<7;<10;20;<10
25.05.2023;12:00;<7;<10;20;<10
25.05.2023;13:00;<7;<10;20;<10
25.05.2023;14:00;<7;<10;20;<10
25.05.2023;15:00;<7;<10;19;<10
25.05.2023;16:00;<7;<10;19;<10
25.05.2023;17:00;<7;<10;19;<10
25.05.2023;18:00;<7;<10;19;<10
25.05.2023;19:00;<7;<10;19;<10
25.05.2023;20:00;<7;<10;18;<10
25.05.2023;21:00;<7;<10;18;<10
25.05.2023;22:00;<7;<10;18;<10
25.05.2023;23:00;<7;<10;18;<10
25.05.2023;24:00;<7;<10;19;<10
26.05.2023;01:00;<7;<10;19;<10
26.05.2023;02:00;<7;<10;19;<10
26.05.2023;03:00;<7;<10;20;<10
26.05.2023;04:00;<7;<10;20;<10
26.05.2023;05:00;<7;<10;20;<10
26.05.2023;06:00;<7;<10;20;<10
26.05.2023;07:00;<7;<10;21;<10
26.05.2023;08:00;;;21;<10
26.05.2023;09:00;<7;<10;22;<10
26.05.2023;10:00;;;22;
26.05.2023;11:00;;;23;
26.05.2023;12:00;;;23;
26.05.2023;13:00;<7;<10;23;<10
26.05.2023;14:00;<7;<10;24;<10
26.05.2023;15:00;<7;<10;24;<10
26.05.2023;16:00;<7;<10;24;<10
26.05.2023;17:00;<7;<10;25;<10
26.05.2023;18:00;<7;<10;25;<10
26.05.2023;19:00;<7;<10;25;<10
26.05.2023;20:00;<7;<10;25;<10
26.05.2023;21:00;<7;<10;25;<10
26.05.2023;22:00;<7;<10;25;<10
26.05.2023;23:00;<7;<10;25;<10
26.05.2023;24:00;<7;<10;25;<10
27.05.2023;01:00;<7;<10;25;<10
27.05.2023;02:00;<7;<10;25;<10
27.05.2023;03:00;<7;<10;25;<10
27.05.2023;04:00;<7;<10;24;<10
27.05.2023;05:00;<7;<10;24;<10
27.05.2023;06:00;<7;<10;24;<10
27.05.2023;07:00;<7;<10;24;<10
27.05.2023;08:00;<7;<10;23;<10
27.05.2023;09:00;<7;<10;23;<10
27.05.2023;10:00;<7;<10;23;<10
27.05.2023;11:00;<7;<10;23;<10
27.05.2023;12:00;<7;<10;22;<10
27.05.2023;13:00;;;22;
27.05.2023;14:00;<7;<10;22;<10
27.05.2023;15:00;<7;<10;21;<10
27.05.2023;16:00;<7;<10;21;<10
27.05.2023;17:00;<7;<10;21;<10
27.05.2023;18:00;<7;<10;21;<10
27.05.2023;19:00;<7;<10;21;<10
27.05.2023;20:00;<7;<10;20;<10
27.05.2023;21:00;<7;<10;20;<10
27.05.2023;22:00;<7;10;20;<10
27.05.2023;23:00;<7;<10;20;<10
27.05.2023;24:00;<7;<10;20;<10
28.05.2023;01:00;<7;<10;20;<10
28.05.2023;02:00;<7;<10;20;<10
28.05.2023;03:00;<7;<10;20;<10
28.05.2023;04:00;<7;<10;20;<10
28.05.2023;05:00;<7;10;20;<10
28.05.2023;06:00;<7;11;20;<10
28.05.2023;07:00;<7;12;20;<10
28.05.2023;08:00;<7;<10;20;<10
28.05.2023;09:00;<7;<10;20;<10
28.05.2023;10:00;<7;<10;19;<10
28.05.2023;11:00;<7;<10;19;<10
28.05.2023;12:00;<7;<10;19;<10
28.05.2023;13:00;<7;<10;18;<10
28.05.2023;14:00;;;18;
28.05.2023;15:00;<7;<10;18;<10
28.05.2023;16:00;<7;<10;18;<10
28.05.2023;17:00;<7;<10;18;<10
28.05.2023;18:00;<7;<10;18;<10
28.05.2023;19:00;<7;<10;18;<10
28.05.2023;20:00;<7;<10;18;<10
28.05.2023;21:00;<7;<10;18;<10
28.05.2023;22:00;<7;<10;18;<10
28.05.2023;23:00;<7;<10;18;<10
28.05.2023;24:00;<7;<10;17;<10
29.05.2023;01:00;<7;<10;17;<10
29.05.2023;02:00;<7;<10;16;<10
29.05.2023;03:00;<7;<10;16;<10
29.05.2023;04:00;<7;<10;16;<10
29.05.2023;05:00;<7;<10;16;<10
29.05.2023;06:00;<7;<10;16;<10
29.05.2023;07:00;<7;<10;16;<10
29.05.2023;08:00;<7;<10;16;<10
29.05.2023;09:00;<7;<10;16;<10
29.05.2023;10:00;<7;<10;16;<10
29.05.2023;11:00;<7;<10;16;<10
29.05.2023;12:00;<7;<10;16;<10
29.05.2023;13:00;<7;<10;16;<10
29.05.2023;14:00;;;16;
29.05.2023;15:00;;;16;
29.05.2023;16:00;;;16;
29.05.2023;17:00;;;16;
29.05.2023;18:00;;;16;
29.05.2023;19:00;;;16;
29.05.2023;20:00;;;;
29.05.2023;21:00;;;;
29.05.2023;22:00;;;;
29.05.2023;23:00;;;;
29.05.2023;24:00;;;;
30.05.2023;01:00;;;;
30.05.2023;02:00;;;;
30.05.2023;03:00;;;;
30.05.2023;04:00;;;;
30.05.2023;05:00;;;;
30.05.2023;06:00;;;;
30.05.2023;07:00;;;;
30.05.2023;08:00;;;;
30.05.2023;09:00;;;;
30.05.2023;10:00;<7;<10;;<10
30.05.2023;11:00;<7;<10;;<10
30.05.2023;12:00;<7;<10;;<10
30.05.2023;13:00;<7;<10;;<10
30.05.2023;14:00;<7;<10;;<10
30.05.2023;15:00;<7;<10;;<10
30.05.2023;16:00;<7;<10;;<10
30.05.2023;17:00;<7;<10;;<10
30.05.2023;18:00;<7;<10;;<10
30.05.2023;19:00;<7;<10;;<10
30.05.2023;20:00;<7;<10;;<10
30.05.2023;21:00;<7;<10;;<10
30.05.2023;22:00;<7;<10;;<10
30.05.2023;23:00;<7;<10;;<10
30.05.2023;24:00;<7;<10;;<10
31.05.2023;01:00;<7;<10;;<10
31.05.2023;02:00;<7;<10;15;<10
31.05.2023;03:00;<7;<10;15;<10
31.05.2023;04:00;<7;<10;15;<10
31.05.2023;05:00;<7;<10;15;<10
31.05.2023;06:00;<7;14;15;<10
31.05.2023;07:00;<7;13;15;<10
31.05.2023;08:00;<7;11;15;<10
31.05.2023;09:00;<7;<10;16;<10
31.05.2023;10:00;;;16;
31.05.2023;11:00;<7;<10;16;<10
31.05.2023;12:00;<7;<10;16;<10
31.05.2023;13:00;<7;<10;16;<10
31.05.2023;14:00;<7;<10;16;<10
31.05.2023;15:00;<7;<10;16;<10
31.05.2023;16:00;<7;<10;16;<10
31.05.2023;17:00;<7;<10;16;<10
31.05.2023;18:00;<7;<10;16;<10
31.05.2023;19:00;<7;<10;16;<10
31.05.2023;20:00;<7;<10;16;<10
31.05.2023;21:00;<7;11;16;<10
31.05.2023;22:00;<7;10;16;<10
31.05.2023;23:00;<7;<10;16;<10
31.05.2023;24:00;<7;<10;16;<10
01.06.2023;01:00;<7;<10;17;<10
01.06.2023;02:00;<7;<10;17;<10
01.06.2023;03:00;<7;<10;17;<10
01.06.2023;04:00;<7;<10;17;<10
01.06.2023;05:00;<7;<10;17;<10
01.06.2023;06:00;<7;<10;17;<10
01.06.2023;07:00;<7;<10;17;<10
01.06.2023;08:00;<7;<10;16;<10
01.06.2023;09:00;<7;<10;16;<10
01.06.2023;10:00;<7;<10;16;<10
01.06.2023;11:00;;;16;
01.06.2023;12:00;<7;<10;17;<10
01.06.2023;13:00;<7;<10;17;<10
01.06.2023;14:00;<7;<10;17;<10
01.06.2023;15:00;<7;<10;17;<10
01.06.2023;16:00;<7;<10;16;<10
01.06.2023;17:00;<7;<10;16;<10
01.06.2023;18:00;<7;<10;16;<10
01.06.2023;19:00;<7;<10;16;<10
01.06.2023;20:00;<7;<10;16;<10
01.06.2023;21:00;<7;<10;16;<10
01.06.2023;22:00;<7;<10;16;<10
01.06.2023;23:00;<7;<10;16;<10
01.06.2023;24:00;<7;<10;16;<10
02.06.2023;01:00;<7;<10;16;<10
02.06.2023;02:00;<7;<10;16;<10
02.06.2023;03:00;<7;<10;16;<10
02.06.2023;04:00;<7;<10;16;<10
02.06.2023;05:00;<7;<10;16;<10
02.06.2023;06:00;<7;<10;16;<10
02.06.2023;07:00;<7;<10;17;<10
02.06.2023;08:00;<7;<10;17;<10
02.06.2023;09:00;<7;<10;17;<10
02.06.2023;10:00;<7;<10;17;<10
02.06.2023;11:00;<7;<10;17;<10
02.06.2023;12:00;;;17;
02.06.2023;13:00;<7;<10;17;<10
02.06.2023;14:00;<7;<10;17;<10
02.06.2023;15:00;<7;<10;17;<10
02.06.2023;16:00;<7;<10;18;<10
02.06.2023;17:00;<7;<10;18;<10
02.06.2023;18:00;<7;<10;18;<10
02.06.2023;19:00;<7;<10;18;<10
02.06.2023;20:00;<7;<10;18;<10
02.06.2023;21:00;<7;<10;18;<10
02.06.2023;22:00;<7;<10;19;<10
02.06.2023;23:00;<7;<10;19;<10
02.06.2023;24:00;<7;<10;19;<10
03.06.2023;01:00;<7;<10;19;<10
03.06.2023;02:00;<7;11;19;<10
03.06.2023;03:00;<7;<10;20;<10
03.06.2023;04:00;<7;<10;19;<10
03.06.2023;05:00;<7;<10;19;<10
03.06.2023;06:00;<7;12;19;<10
03.06.2023;07:00;<7;<10;18;<10
03.06.2023;08:00;<7;<10;18;<10
03.06.2023;09:00;<7;<10;18;<10
03.06.2023;10:00;<7;<10;18;<10
03.06.2023;11:00;<7;<10;17;<10
03.06.2023;12:00;<7;<10;17;<10
03.06.2023;13:00;;;17;
03.06.2023;14:00;<7;<10;16;<10
03.06.2023;15:00;<7;<10;16;<10
03.06.2023;16:00;<7;<10;16;<10
03.06.2023;17:00;<7;<10;16;<10
03.06.2023;18:00;<7;<10;15;<10
03.06.2023;19:00;<7;<10;15;<10
03.06.2023;20:00;<7;<10;15;<10
03.06.2023;21:00;<7;<10;14;<10
03.06.2023;22:00;<7;<10;14;<10
03.06.2023;23:00;<7;11;14;<10
03.06.2023;24:00;<7;<10;14;<10
04.06.2023;01:00;<7;<10;14;<10
04.06.2023;02:00;<7;11;13;<10
04.06.2023;03:00;<7;<10;13;<10
04.06.2023;04:00;<7;<10;13;<10
04.06.2023;05:00;<7;10;14;<10
04.06.2023;06:00;<7;12;13;<10
04.06.2023;07:00;<7;11;13;<10
04.06.2023;08:00;<7;<10;13;<10
04.06.2023;09:00;<7;<10;14;<10
04.06.2023;10:00;<7;<10;13;<10
04.06.2023;11:00;<7;<10;14;<10
04.06.2023;12:00;<7;<10;14;<10
04.06.2023;13:00;<7;<10;14;<10
04.06.2023;14:00;;;14;
04.06.2023;15:00;<7;<10;15;<10
04.06.2023;16:00;<7;<10;15;<10
04.06.2023;17:00;<7;<10;15;<10
04.06.2023;18:00;<7;<10;15;<10
04.06.2023;19:00;<7;<10;15;<10
04.06.2023;20:00;<7;<10;15;<10
04.06.2023;21:00;<7;<10;15;<10